DW4554 Weather Reports


Display with metric or nautical units.
time (UTC)temp
F
wind
direction
speed
MPH
gust
MPH
rain 1hr
in
rain 24hr
in
rain mn
in
humidity
%
barometer
mb
20220707110904 73 349 3.0 5.0 0.01 0.01 0.01 65 1015.7
20220707110404 73 350 2.0 6.0 0.00 0.00 0.00 63 1015.5
20220707105904 74 352 3.0 5.0 0.00 0.00 0.00 65 1015.6
20220707105404 74 141 0.0 5.0 0.00 0.00 0.00 61 1015.5
20220707104904 75 140 2.0 5.0 0.00 0.00 0.00 56 1015.5
20220707104404 75 175 2.0 5.0 0.00 0.00 0.00 55 1015.5
20220707103904 75 117 1.0 5.0 0.00 0.00 0.00 55 1015.5
20220707103404 76 141 2.0 3.0 0.00 0.00 0.00 54 1015.4
20220707102904 76 214 1.0 5.0 0.00 0.00 0.00 55 1015.5
20220707102405 76 226 4.0 6.0 0.00 0.00 0.00 55 1015.5
20220707101904 76 220 2.0 3.0 0.00 0.00 0.00 57 1015.6
20220707101404 75 72 3.0 6.0 0.00 0.00 0.00 57 1015.6
20220707100904 75 45 3.0 6.0 0.00 0.01 0.00 58 1015.7
20220707100404 74 91 2.0 5.0 0.00 0.03 0.00 59 1015.7
20220707095904 74 92 1.0 3.0 0.00 0.06 0.00 60 1015.8
20220707095404 73 96 2.0 5.0 0.00 0.07 0.00 61 1015.8
20220707094904 73 202 0.0 2.0 0.00 0.09 0.00 63 1015.9
20220707094404 73 203 3.0 5.0 0.00 0.12 0.00 60 1015.9
20220707093904 72 163 1.0 5.0 0.00 0.14 0.00 60 1016.0
20220707093405 72 181 1.0 3.0 0.00 0.16 0.00 63 1016.0
20220707092904 71 181 2.0 3.0 0.00 0.17 0.00 63 1016.0
20220707092404 70 86 1.0 3.0 0.00 0.18 0.00 63 1016.0
20220707091904 70 81 1.0 3.0 0.00 0.20 0.00 66 1016.0
20220707091404 69 81 2.0 3.0 0.00 0.24 0.00 68 1016.1
20220707090904 68 82 2.0 3.0 0.00 0.27 0.00 71 1016.1
20220707090404 67 60 3.0 6.0 0.00 0.30 0.00 75 1016.2
20220707085904 66 62 3.0 6.0 0.00 0.31 0.00 78 1016.3
20220707085404 65 74 2.0 3.0 0.00 0.31 0.00 77 1016.3
20220707084904 64 71 2.0 6.0 0.00 0.31 0.00 81 1016.3
20220707084404 63 86 1.0 5.0 0.00 0.31 0.00 83 1016.4
20220707083904 63 77 3.0 5.0 0.00 0.31 0.00 86 1016.4
20220707083404 63 117 0.0 2.0 0.00 0.31 0.00 86 1016.5
20220707082904 62 117 0.0 2.0 0.00 0.31 0.00 86 1016.5
20220707082404 62 117 0.0 1.0 0.00 0.31 0.00 86 1016.5
20220707081904 62 117 0.0 0.0 0.00 0.31 0.00 86 1016.5
20220707081404 62 117 0.0 2.0 0.00 0.31 0.00 86 1016.5
20220707080904 62 117 1.0 3.0 0.00 0.31 0.00 86 1016.6
20220707080404 62 109 0.0 0.0 0.00 0.31 0.00 86 1016.5
20220707075904 62 109 0.0 0.0 0.00 0.31 0.00 86 1016.5
20220707075404 62 109 0.0 1.0 0.00 0.31 0.00 87 1016.6
20220707074904 62 109 0.0 0.0 0.00 0.31 0.00 87 1016.6
20220707074404 61 109 0.0 0.0 0.00 0.31 0.00 87 1016.6
20220707073904 61 109 0.0 1.0 0.00 0.31 0.00 87 1016.7
20220707073404 61 109 0.0 2.0 0.00 0.31 0.00 87 1016.7
20220707072904 61 109 0.0 3.0 0.00 0.31 0.00 87 1016.7
20220707072404 61 109 1.0 3.0 0.00 0.31 0.00 87 1016.6
20220707071904 61 109 1.0 2.0 0.00 0.31 0.00 87 1016.7
20220707071404 61 109 0.0 0.0 0.00 0.31 0.00 87 1016.8
20220707070404 61 109 0.0 0.0 0.00 0.31 0.00 87 1016.9
20220707065904 61 109 0.0 0.0 0.00 0.31 0.00 87 1016.9
20220707065404 60 109 0.0 1.0 0.00 0.31 0.00 87 1016.9
20220707064904 60 109 0.0 5.0 0.00 0.31 0.00 87 1016.9
20220707064404 60 108 0.0 0.0 0.00 0.31 0.00 87 1017.0
20220707063904 60 108 0.0 2.0 0.00 0.31 0.00 88 1017.0
20220707063404 59 108 0.0 2.0 0.00 0.31 0.00 88 1017.0
20220707062904 59 108 0.0 2.0 0.00 0.31 0.00 88 1017.0
20220707062404 59 117 0.0 1.0 0.00 0.31 0.00 88 1017.0
20220707061904 59 117 0.0 1.0 0.00 0.31 0.00 89 1017.1
20220707061404 58 117 0.0 2.0 0.00 0.31 0.00 90 1017.1
20220707060904 58 92 1.0 3.0 0.00 0.31 0.00 91 1017.1
20220707060404 58 93 2.0 3.0 0.00 0.31 0.00 91 1017.0
20220707055904 58 97 1.0 3.0 0.00 0.31 0.00 91 1017.1
20220707055404 57 85 1.0 2.0 0.00 0.31 0.00 91 1017.0
20220707054904 57 115 1.0 2.0 0.00 0.31 0.00 91 1017.1
20220707054404 57 86 0.0 2.0 0.00 0.31 0.00 91 1017.1
20220707053904 57 86 0.0 2.0 0.00 0.31 0.00 91 1017.1
20220707053404 56 86 0.0 2.0 0.00 0.31 0.00 91 1017.2
20220707052904 56 86 0.0 1.0 0.00 0.31 0.00 91 1017.2
20220707052404 56 86 0.0 3.0 0.00 0.31 0.00 90 1017.2
20220707051904 55 82 2.0 3.0 0.00 0.31 0.00 91 1017.2
20220707051404 55 75 2.0 3.0 0.00 0.31 0.00 91 1017.3
20220707050904 55 84 2.0 3.0 0.00 0.31 0.00 91 1017.2
20220707050404 54 82 2.0 3.0 0.00 0.31 0.00 91 1017.4
20220707045904 54 84 1.0 3.0 0.00 0.31 0.00 91 1017.4
20220707045404 54 84 0.0 0.0 0.00 0.31 0.00 91 1017.3
20220707044904 54 84 0.0 0.0 0.00 0.31 0.00 91 1017.4
20220707044404 54 84 0.0 0.0 0.00 0.31 0.00 91 1017.4
20220707043904 54 84 0.0 0.0 0.00 0.31 0.00 91 1017.4
20220707043404 54 84 0.0 0.0 0.00 0.31 0.00 91 1017.5
20220707042904 54 84 0.0 0.0 0.00 0.31 0.00 91 1017.5
20220707042404 53 84 0.0 0.0 0.00 0.31 0.00 91 1017.5
20220707041904 53 84 0.0 0.0 0.00 0.31 0.00 91 1017.5
20220707041404 53 84 0.0 0.0 0.00 0.31 0.00 91 1017.5
20220707040904 53 84 0.0 0.0 0.00 0.31 0.00 91 1017.5
20220707040404 53 84 0.0 0.0 0.00 0.31 0.00 91 1017.4
20220707035904 53 84 0.0 0.0 0.00 0.31 0.00 91 1017.4
20220707035404 53 84 0.0 0.0 0.00 0.31 0.00 91 1017.4
20220707034904 53 84 0.0 0.0 0.00 0.31 0.00 91 1017.5
20220707034404 53 84 0.0 0.0 0.00 0.31 0.00 91 1017.4
20220707033903 53 84 0.0 0.0 0.00 0.31 0.00 91 1017.5
20220707033404 53 84 0.0 0.0 0.00 0.31 0.00 91 1017.5
20220707032904 53 84 0.0 0.0 0.00 0.31 0.00 91 1017.5
20220707032404 53 84 0.0 0.0 0.00 0.31 0.00 91 1017.5
20220707031904 53 84 0.0 2.0 0.00 0.31 0.00 91 1017.5
20220707031404 53 84 0.0 1.0 0.00 0.31 0.00 91 1017.4
20220707030904 53 84 0.0 2.0 0.00 0.31 0.00 91 1017.4
20220707030404 53 82 1.0 3.0 0.00 0.31 0.00 91 1017.6
20220707025904 53 82 0.0 0.0 0.00 0.31 0.00 91 1017.6
20220707025404 53 82 0.0 0.0 0.00 0.31 0.00 91 1017.6
20220707024904 53 82 0.0 0.0 0.00 0.31 0.00 91 1017.6
20220707024404 53 82 0.0 0.0 0.00 0.31 0.00 91 1017.6
20220707023904 53 82 0.0 1.0 0.00 0.31 0.00 90 1017.6
20220707023404 53 82 0.0 1.0 0.00 0.31 0.00 90 1017.7
20220707022904 53 82 0.0 2.0 0.00 0.31 0.00 90 1017.7
20220707022404 53 82 1.0 2.0 0.00 0.31 0.00 91 1017.6
20220707021904 53 82 0.0 0.0 0.00 0.31 0.00 90 1017.7
20220707021404 53 82 0.0 0.0 0.00 0.31 0.00 90 1017.7
20220707020904 53 82 0.0 0.0 0.00 0.31 0.00 90 1017.7
20220707020404 53 82 0.0 0.0 0.00 0.31 0.00 90 1017.7
20220707015904 53 82 0.0 0.0 0.00 0.31 0.00 90 1017.7
20220707015404 54 82 0.0 0.0 0.00 0.31 0.00 90 1017.8
20220707014904 54 82 0.0 0.0 0.00 0.31 0.00 90 1017.7
20220707014404 54 82 0.0 0.0 0.00 0.31 0.00 90 1017.7
20220707013904 54 82 0.0 0.0 0.00 0.31 0.00 90 1017.6
20220707013404 54 82 0.0 0.0 0.00 0.31 0.00 90 1017.7
20220707012904 54 82 0.0 0.0 0.00 0.31 0.00 90 1017.7
20220707012404 54 82 0.0 0.0 0.00 0.31 0.00 90 1017.8
20220707011904 54 82 1.0 2.0 0.00 0.31 0.00 90 1017.8
20220707011404 54 82 0.0 0.0 0.00 0.31 0.00 90 1017.9
20220707010904 54 82 0.0 0.0 0.00 0.31 0.00 90 1017.9
20220707010404 54 82 0.0 0.0 0.00 0.31 0.00 90 1017.9
20220707005904 54 82 0.0 0.0 0.00 0.31 0.00 90 1017.9
20220707005404 54 82 0.0 0.0 0.00 0.31 0.00 90 1017.9
20220707004904 55 82 0.0 0.0 0.00 0.31 0.00 90 1017.9
20220707004404 55 82 0.0 2.0 0.00 0.31 0.00 90 1017.9
20220707003904 55 82 0.0 2.0 0.00 0.31 0.00 90 1017.9
20220707003404 55 82 0.0 0.0 0.00 0.31 0.00 90 1017.9
20220707002904 55 82 1.0 2.0 0.00 0.31 0.00 90 1018.1
20220707002404 55 82 1.0 3.0 0.00 0.31 0.00 90 1018.1
20220707001904 55 83 1.0 3.0 0.00 0.31 0.00 89 1018.1
20220707001404 55 83 1.0 2.0 0.00 0.31 0.00 89 1018.1
20220707000904 55 69 0.0 1.0 0.00 0.31 0.00 89 1018.2
20220707000404 55 69 0.0 0.0 0.00 0.31 0.00 89 1018.2
20220706235904 55 69 0.0 0.0 0.00 0.31 0.00 89 1018.2
20220706235404 55 69 0.0 0.0 0.00 0.31 0.00 89 1018.3
20220706234903 55 69 0.0 0.0 0.00 0.31 0.00 89 1018.2
20220706234404 56 69 0.0 14.0 0.00 0.31 0.00 89 1018.2
20220706233904 56 69 0.0 0.0 0.00 0.31 0.00 89 1018.2
20220706233404 56 69 0.0 0.0 0.00 0.31 0.00 89 1018.2
20220706232904 56 69 0.0 3.0 0.00 0.31 0.00 89 1018.1
20220706232404 56 67 2.0 5.0 0.00 0.31 0.00 89 1018.0
20220706231904 56 74 3.0 3.0 0.00 0.31 0.00 89 1018.0
20220706231405 56 82 1.0 3.0 0.00 0.31 0.00 88 1018.0
20220706230904 56 82 0.0 2.0 0.00 0.31 0.00 88 1018.0
20220706230404 56 82 1.0 3.0 0.00 0.31 0.00 88 1018.1
20220706225904 56 82 0.0 0.0 0.00 0.31 0.00 88 1018.2
20220706225404 56 82 0.0 0.0 0.00 0.31 0.00 88 1018.2
20220706224904 56 82 0.0 0.0 0.00 0.31 0.00 88 1018.2
20220706224404 56 82 0.0 0.0 0.00 0.31 0.00 88 1018.1
20220706223904 57 82 0.0 0.0 0.00 0.31 0.00 87 1018.1
20220706223405 57 82 0.0 2.0 0.00 0.31 0.00 87 1018.1
20220706222904 57 82 1.0 3.0 0.00 0.31 0.00 87 1018.0
20220706222404 57 82 1.0 3.0 0.00 0.31 0.00 87 1018.1
20220706221904 57 82 0.0 0.0 0.00 0.31 0.00 87 1018.1
20220706221404 57 82 0.0 0.0 0.00 0.31 0.00 87 1018.1
20220706220904 57 82 0.0 0.0 0.00 0.31 0.00 86 1018.2
20220706220404 57 82 0.0 2.0 0.00 0.31 0.00 86 1018.1
20220706215904 57 80 2.0 3.0 0.00 0.31 0.31 86 1018.1
20220706215404 58 82 1.0 3.0 0.00 0.31 0.31 85 1018.1
20220706214904 58 82 0.0 0.0 0.00 0.31 0.31 85 1018.0
20220706214404 58 82 0.0 0.0 0.00 0.31 0.31 85 1018.1
20220706213904 58 82 0.0 0.0 0.00 0.31 0.31 85 1018.1
20220706213404 58 82 0.0 0.0 0.00 0.31 0.31 84 1018.1
20220706212904 58 82 0.0 1.0 0.00 0.31 0.31 84 1018.1
20220706212404 59 82 1.0 2.0 0.00 0.31 0.31 84 1018.1
20220706211904 59 82 1.0 3.0 0.00 0.31 0.31 84 1018.0
20220706211404 59 82 2.0 3.0 0.00 0.31 0.31 83 1018.1
20220706210904 59 82 1.0 2.0 0.00 0.31 0.31 83 1018.0
20220706210404 59 82 0.0 2.0 0.00 0.31 0.31 82 1018.0
20220706205904 60 82 1.0 3.0 0.00 0.31 0.31 82 1018.0
20220706205404 60 82 2.0 3.0 0.00 0.31 0.31 81 1018.0
20220706204904 60 82 0.0 1.0 0.00 0.31 0.31 80 1018.0
20220706204404 60 82 0.0 0.0 0.00 0.31 0.31 80 1018.1
20220706203904 60 82 0.0 2.0 0.00 0.31 0.31 79 1018.1
20220706203404 61 82 1.0 2.0 0.00 0.31 0.31 79 1018.1
20220706202904 61 82 0.0 0.0 0.00 0.31 0.31 78 1018.1
20220706202405 61 82 0.0 0.0 0.00 0.31 0.31 78 1018.1
20220706201904 61 82 0.0 2.0 0.00 0.31 0.31 77 1018.1
20220706201404 62 82 1.0 2.0 0.00 0.31 0.31 77 1018.1
20220706200905 62 82 1.0 3.0 0.00 0.31 0.31 76 1018.0
20220706200404 62 82 1.0 3.0 0.00 0.31 0.31 76 1018.0
20220706195904 63 82 2.0 3.0 0.00 0.31 0.31 75 1018.0
20220706195404 63 74 0.0 3.0 0.00 0.31 0.31 74 1018.0
20220706194904 64 74 0.0 0.0 0.00 0.31 0.31 73 1018.0
20220706194404 64 74 0.0 0.0 0.00 0.31 0.31 73 1018.0
20220706193904 64 74 0.0 0.0 0.00 0.31 0.31 73 1018.0
20220706193404 65 74 0.0 0.0 0.00 0.31 0.31 72 1017.8
20220706192904 65 74 0.0 2.0 0.00 0.31 0.31 72 1017.8
20220706192404 66 74 0.0 1.0 0.00 0.31 0.31 70 1017.7
20220706191904 66 74 0.0 0.0 0.00 0.31 0.31 70 1017.7
20220706191404 67 74 0.0 0.0 0.00 0.31 0.31 69 1017.6
20220706190904 67 74 0.0 0.0 0.00 0.31 0.31 68 1017.6
20220706190404 68 74 1.0 2.0 0.00 0.31 0.31 68 1017.5
20220706185904 68 74 1.0 2.0 0.00 0.31 0.31 68 1017.4
20220706185405 68 74 0.0 0.0 0.00 0.31 0.31 66 1017.4
20220706184904 69 74 0.0 0.0 0.00 0.31 0.31 65 1017.4
20220706184404 69 74 0.0 0.0 0.00 0.31 0.31 64 1017.4
20220706183904 69 74 0.0 0.0 0.00 0.31 0.31 63 1017.3
20220706183404 70 74 0.0 0.0 0.00 0.31 0.31 62 1017.2
20220706182904 70 74 0.0 0.0 0.00 0.31 0.31 60 1017.3
20220706182404 70 74 0.0 2.0 0.00 0.31 0.31 60 1017.3
20220706181904 70 72 2.0 3.0 0.00 0.31 0.31 59 1017.3
20220706181404 71 73 2.0 3.0 0.00 0.31 0.31 58 1017.2
20220706180904 71 70 2.0 3.0 0.00 0.31 0.31 57 1017.2
20220706180404 71 77 2.0 3.0 0.00 0.31 0.31 56 1017.2
20220706175904 71 54 3.0 7.0 0.00 0.31 0.31 56 1017.1
20220706175404 71 73 2.0 5.0 0.00 0.31 0.31 55 1017.1
20220706174904 72 65 3.0 6.0 0.00 0.31 0.31 55 1017.1
20220706174404 72 60 1.0 6.0 0.00 0.31 0.31 55 1017.2
20220706173904 72 57 3.0 8.0 0.00 0.31 0.31 53 1017.2
20220706173404 73 57 2.0 9.0 0.00 0.31 0.31 53 1017.3
20220706172904 73 57 2.0 3.0 0.00 0.31 0.31 52 1017.2
20220706172404 73 0 2.0 6.0 0.00 0.31 0.31 53 1017.2
20220706171904 73 57 2.0 5.0 0.00 0.31 0.31 53 1017.2
20220706171404 73 55 3.0 5.0 0.00 0.31 0.31 53 1017.1
20220706170904 74 320 3.0 7.0 0.00 0.31 0.31 52 1017.2
20220706170404 74 57 2.0 5.0 0.00 0.31 0.31 52 1017.1
20220706165904 74 338 2.0 5.0 0.00 0.31 0.31 52 1017.2
20220706165404 74 331 2.0 9.0 0.00 0.31 0.31 51 1017.2
20220706164904 75 52 2.0 6.0 0.00 0.31 0.31 52 1017.1
20220706164404 75 28 2.0 6.0 0.00 0.31 0.31 54 1017.1
20220706163904 76 46 3.0 7.0 0.00 0.31 0.31 54 1017.1
20220706163404 76 333 4.0 12.0 0.00 0.31 0.31 52 1017.0
20220706162904 76 317 2.0 5.0 0.00 0.31 0.31 50 1017.0
20220706162404 77 300 4.0 7.0 0.00 0.31 0.31 50 1017.0
20220706161904 77 331 3.0 8.0 0.00 0.31 0.31 49 1016.9
20220706161404 77 312 2.0 6.0 0.00 0.31 0.31 48 1016.9
20220706160904 78 297 2.0 7.0 0.00 0.31 0.31 48 1016.8
20220706160404 78 292 3.0 6.0 0.00 0.31 0.31 46 1016.8
20220706155904 78 293 3.0 8.0 0.00 0.31 0.31 45 1016.8
20220706155404 79 312 5.0 10.0 0.00 0.31 0.31 45 1016.8
20220706154904 79 283 3.0 10.0 0.00 0.31 0.31 45 1016.8
20220706154404 79 283 5.0 9.0 0.00 0.31 0.31 44 1016.9
20220706153904 79 274 2.0 9.0 0.00 0.31 0.31 45 1016.9
20220706153404 79 284 6.0 14.0 0.00 0.31 0.31 45 1017.0
20220706152904 79 277 5.0 12.0 0.00 0.31 0.31 44 1017.0
20220706152404 79 282 2.0 10.0 0.00 0.31 0.31 45 1017.0
20220706151904 79 283 6.0 9.0 0.00 0.31 0.31 45 1017.0
20220706151404 79 285 4.0 7.0 0.00 0.31 0.31 46 1017.1
20220706150904 79 306 5.0 10.0 0.00 0.31 0.31 45 1017.1
20220706150404 79 235 5.0 9.0 0.00 0.31 0.31 48 1017.2
20220706145904 79 283 6.0 12.0 0.00 0.31 0.31 47 1017.2
20220706145404 79 287 4.0 8.0 0.00 0.31 0.31 48 1017.2
20220706144904 79 288 3.0 8.0 0.00 0.31 0.31 50 1017.2
20220706144404 79 274 3.0 10.0 0.00 0.31 0.31 50 1017.4
20220706143904 79 249 6.0 10.0 0.00 0.31 0.31 50 1017.4
20220706143404 79 286 3.0 6.0 0.00 0.31 0.31 51 1017.4
20220706142904 78 288 5.0 12.0 0.00 0.32 0.31 50 1017.5
20220706142404 78 307 4.0 6.0 0.00 0.32 0.31 51 1017.5
20220706141904 78 302 3.0 7.0 0.00 0.33 0.31 51 1017.6
20220706141404 77 315 5.0 10.0 0.00 0.35 0.31 50 1017.5
20220706140904 77 301 4.0 9.0 0.00 0.35 0.31 50 1017.6
20220706140404 77 265 2.0 9.0 0.00 0.36 0.31 52 1017.6
20220706135904 76 235 3.0 9.0 0.00 0.37 0.31 57 1017.7
20220706135404 76 248 2.0 7.0 0.00 0.37 0.31 58 1017.8
20220706134904 76 277 3.0 7.0 0.00 0.38 0.31 58 1017.8
20220706134404 75 219 3.0 6.0 0.00 0.38 0.31 56 1017.8
20220706133904 76 244 3.0 8.0 0.00 0.39 0.31 53 1018.0
20220706133404 76 266 3.0 7.0 0.00 0.39 0.31 54 1017.9
20220706132904 76 240 5.0 8.0 0.00 0.39 0.31 55 1018.0
20220706132405 76 224 4.0 12.0 0.00 0.39 0.31 56 1018.0
20220706131904 76 279 5.0 9.0 0.00 0.39 0.31 59 1018.0
20220706131404 76 249 5.0 9.0 0.00 0.39 0.31 59 1018.0
20220706130904 75 281 3.0 8.0 0.00 0.40 0.31 61 1018.0
20220706130404 75 223 4.0 8.0 0.00 0.40 0.31 61 1018.1
20220706125904 75 279 3.0 10.0 0.00 0.40 0.31 64 1018.1
20220706125404 74 235 6.0 9.0 0.00 0.41 0.31 66 1018.1
20220706124904 74 249 5.0 10.0 0.00 0.41 0.31 68 1018.1
20220706124404 73 242 4.0 10.0 0.00 0.42 0.31 67 1018.1
20220706123904 73 240 5.0 12.0 0.00 0.42 0.31 70 1018.1
20220706123404 73 277 5.0 12.0 0.00 0.42 0.31 71 1018.2
20220706122904 72 240 5.0 8.0 0.00 0.42 0.31 71 1018.2
20220706122404 72 223 4.0 8.0 0.00 0.42 0.31 71 1018.2
20220706121904 72 228 2.0 8.0 0.00 0.43 0.31 74 1018.2
20220706121404 71 236 3.0 6.0 0.00 0.43 0.31 77 1018.3
20220706120904 71 227 2.0 6.0 0.00 0.43 0.31 77 1018.2
20220706120404 70 282 2.0 5.0 0.00 0.43 0.31 76 1018.3
20220706115904 70 221 1.0 5.0 0.00 0.43 0.31 73 1018.4
20220706115404 69 238 2.0 5.0 0.00 0.43 0.31 77 1018.4
20220706114904 68 219 2.0 3.0 0.00 0.43 0.31 79 1018.5
20220706114404 68 227 1.0 6.0 0.00 0.43 0.31 81 1018.5
20220706113904 67 73 1.0 3.0 0.00 0.44 0.31 78 1018.4
20220706113404 67 71 1.0 3.0 0.00 0.44 0.31 81 1018.4
20220706112904 66 71 1.0 3.0 0.00 0.45 0.31 86 1018.4
20220706112404 65 71 0.0 2.0 0.00 0.45 0.31 87 1018.4
20220706111904 65 71 2.0 3.0 0.00 0.45 0.31 88 1018.5
20220706111404 64 71 0.0 2.0 0.00 0.46 0.31 88 1018.5